SBIRS GEO-3 (USA 282)

Last updated on Sat Oct 25 2025 00:02:51 GMT+0000 (Coordinated Universal Time)

1 43162U 18009A 25297.65871226 .00000139 00000+0 00000+0 0 9997 2 43162 2.0861 359.8864 0001825 215.1062 256.0728 1.00272210 28488
UTC large
Height (km)
Speed (km/s)
/
Latitude / Longitude
Inclination (degrees)
Orbital Period (minutes)
Azimuth
Elevation
Range (km)
Doppler Factor

Next 0 passes for location: London (51.5072 / 0.1276)

Sorry there are no passes over London.